| time (UTC) | temp F | wind direction | speed knots | gust knots | rain 1hr in | rain 24hr in | rain mn in | humidity % | barometer mb |
| 20260503230038 | 64 | 298 | 0.0 | 2.6 | 0.00 | 0.00 | 0.00 | 44 | 1015.1 |
| 20260503224536 | 65 | 221 | 0.0 | 0.0 | 0.00 | 0.00 | 0.00 | 46 | 1015.2 |
| 20260503223036 | 65 | 193 | 0.0 | 3.5 | 0.00 | 0.00 | 0.00 | 44 | 1015.2 |
| 20260503221535 | 66 | 27 | 0.0 | 0.9 | 0.00 | 0.00 | 0.00 | 44 | 1015.3 |
| 20260503220034 | 65 | 302 | 0.0 | 4.3 | 0.00 | 0.00 | 0.00 | 45 | 1015.2 |
| 20260503214533 | 65 | 196 | 0.0 | 3.5 | 0.00 | 0.00 | 0.00 | 43 | 1015.4 |
| 20260503213032 | 65 | 143 | 0.0 | 4.3 | 0.00 | 0.00 | 0.00 | 44 | 1015.5 |
| 20260503211529 | 65 | 295 | 0.0 | 2.6 | 0.00 | 0.00 | 0.00 | 44 | 1015.6 |
| 20260503210029 | 65 | 215 | 0.0 | 2.6 | 0.00 | 0.00 | 0.00 | 43 | 1015.6 |
| 20260503204530 | 64 | 231 | 0.0 | 6.1 | 0.00 | 0.00 | 0.00 | 44 | 1015.7 |
| 20260503203027 | 64 | 252 | 0.0 | 4.3 | 0.00 | 0.00 | 0.00 | 44 | 1016.1 |
| 20260503201527 | 64 | 236 | 0.9 | 5.2 | 0.00 | 0.00 | 0.00 | 42 | 1016.3 |
| 20260503200024 | 64 | 234 | 0.0 | 0.9 | 0.00 | 0.00 | 0.00 | 45 | 1016.5 |
| 20260503194523 | 63 | 226 | 0.0 | 7.0 | 0.00 | 0.00 | 0.00 | 46 | 1016.8 |
| 20260503193036 | 62 | 267 | 0.9 | 4.3 | 0.00 | 0.00 | 0.00 | 47 | 1017.1 |
| 20260503191519 | 63 | 46 | 0.0 | 2.6 | 0.00 | 0.00 | 0.00 | 44 | 1017.2 |
| 20260503190016 | 62 | 290 | 0.0 | 3.5 | 0.00 | 0.00 | 0.00 | 48 | 1017.4 |
| 20260503184522 | 61 | 276 | 0.0 | 4.3 | 0.00 | 0.00 | 0.00 | 48 | 1017.6 |
| 20260503183014 | 60 | 31 | 0.9 | 6.1 | 0.00 | 0.00 | 0.00 | 46 | 1017.7 |
| 20260503181514 | 61 | 333 | 0.0 | 2.6 | 0.00 | 0.00 | 0.00 | 45 | 1017.9 |
| 20260503180017 | 61 | 252 | 0.0 | 5.2 | 0.00 | 0.00 | 0.00 | 48 | 1017.9 |
| 20260503174511 | 60 | 295 | 1.7 | 5.2 | 0.00 | 0.00 | 0.00 | 47 | 1017.9 |
| 20260503173021 | 60 | 68 | 0.0 | 1.7 | 0.00 | 0.00 | 0.00 | 45 | 1018.2 |
| 20260503171517 | 59 | 338 | 1.7 | 4.3 | 0.00 | 0.00 | 0.00 | 50 | 1018.5 |
| 20260503100110 | 38 | 141 | 0.0 | 0.0 | 0.00 | 0.00 | 0.00 | 86 | 1017.3 |
| 20260503081545 | 40 | 113 | 0.0 | 0.0 | 0.00 | 0.00 | 0.00 | 80 | 1016.3 |
| 20260503071539 | 41 | 128 | 0.0 | 0.9 | 0.00 | 0.00 | 0.00 | 78 | 1015.6 |
| 20260503054536 | 41 | 131 | 0.0 | 0.0 | 0.00 | 0.00 | 0.00 | 77 | 1015.5 |
| 20260503053024 | 43 | 230 | 0.0 | 0.0 | 0.00 | 0.00 | 0.00 | 73 | 1015.5 |
| 20260503051527 | 43 | 295 | 0.0 | 0.9 | 0.00 | 0.00 | 0.00 | 72 | 1015.4 |
| 20260503050023 | 43 | 72 | 0.0 | 3.5 | 0.00 | 0.00 | 0.00 | 73 | 1015.5 |
| 20260503044530 | 43 | 238 | 0.0 | 0.0 | 0.00 | 0.00 | 0.00 | 71 | 1015.4 |
| 20260503043017 | 43 | 100 | 0.0 | 0.0 | 0.00 | 0.00 | 0.00 | 70 | 1015.3 |
| 20260503041516 | 43 | 100 | 0.0 | 0.0 | 0.00 | 0.00 | 0.00 | 71 | 1015.2 |
| 20260503040022 | 44 | 100 | 0.0 | 0.0 | 0.00 | 0.00 | 0.00 | 69 | 1015.1 |
| 20260503034509 | 45 | 264 | 0.0 | 0.0 | 0.00 | 0.00 | 0.00 | 64 | 1014.9 |
| 20260503033005 | 46 | 250 | 0.0 | 0.9 | 0.00 | 0.00 | 0.00 | 64 | 1014.7 |
| 20260503031503 | 47 | 86 | 0.0 | 0.0 | 0.00 | 0.00 | 0.00 | 60 | 1014.7 |
| 20260503030100 | 48 | 56 | 0.0 | 0.0 | 0.00 | 0.00 | 0.00 | 57 | 1014.5 |
| 20260503024557 | 49 | 74 | 0.0 | 2.6 | 0.00 | 0.00 | 0.00 | 55 | 1014.3 |
| 20260503023100 | 49 | 93 | 0.0 | 7.0 | 0.00 | 0.00 | 0.00 | 54 | 1014.3 |
| 20260503021554 | 50 | 219 | 0.0 | 7.0 | 0.00 | 0.00 | 0.00 | 54 | 1014.0 |
| 20260503020051 | 50 | 58 | 0.9 | 7.0 | 0.00 | 0.00 | 0.00 | 53 | 1013.9 |
| 20260503014549 | 51 | 32 | 0.9 | 8.7 | 0.00 | 0.00 | 0.00 | 53 | 1013.5 |
| 20260503013054 | 51 | 20 | 0.9 | 6.1 | 0.00 | 0.00 | 0.00 | 51 | 1013.2 |
| 20260503011556 | 51 | 16 | 0.0 | 4.3 | 0.00 | 0.00 | 0.00 | 50 | 1013.1 |
| 20260503010112 | 52 | 250 | 0.9 | 6.1 | 0.00 | 0.00 | 0.00 | 49 | 1012.8 |
| 20260503004543 | 52 | 271 | 1.7 | 5.2 | 0.00 | 0.00 | 0.00 | 47 | 1012.5 |
| 20260503003042 | 53 | 41 | 0.9 | 6.1 | 0.00 | 0.00 | 0.00 | 46 | 1012.3 |
| 20260503001541 | 53 | 293 | 0.9 | 6.1 | 0.00 | 0.00 | 0.00 | 45 | 1012.1 |
| 20260503000040 | 54 | 309 | 0.9 | 7.0 | 0.00 | 0.00 | 0.00 | 45 | 1011.8 |
| 20260502234541 | 54 | 283 | 0.9 | 5.2 | 0.00 | 0.00 | 0.00 | 44 | 1011.7 |
| 20260502233039 | 54 | 319 | 0.0 | 7.0 | 0.00 | 0.00 | 0.00 | 43 | 1011.4 |
| 20260502231538 | 55 | 59 | 0.0 | 8.7 | 0.00 | 0.00 | 0.00 | 42 | 1011.3 |